Location: LDNL
(36.4545°S, 141.6685°E)
Time: 06:48:09
(UTC+10:00)

Courier 1B - Visible Passes

Search period start: 23 September 2023 00:00
Search period end: 03 October 2023 01:00
Orbit: 962 x 1209 km, 28.3° (Epoch: 22 September)

Date Brightness Start Highest point End Pass type
(mag) Time Alt. Az. Time Alt. Az. Time Alt. Az.
23 Sep 9.3 03:16:40 21° NE 03:16:40 21° NE 03:19:31 10° ENE visible
23 Sep 8.2 05:03:33 22° NW 05:07:22 42° N 05:13:46 10° ENE visible
24 Sep 8.1 04:13:03 39° N 04:13:42 39° N 04:19:53 10° ENE visible
25 Sep 8.9 03:22:33 27° NE 03:22:33 27° NE 03:26:01 10° ENE visible
25 Sep 8.2 05:09:26 20° WNW 05:13:34 41° N 05:19:52 10° ENE visible
26 Sep 10.0 02:32:03 10° ENE 02:32:03 10° ENE 02:32:08 10° ENE visible
26 Sep 8.0 04:18:57 39° NNW 04:19:54 42° N 04:26:06 10° ENE visible
27 Sep 8.7 03:28:28 31° NE 03:28:28 31° NE 03:32:20 10° ENE visible
27 Sep 8.3 05:15:21 17° WNW 05:19:44 36° N 05:25:48 10° NE visible
28 Sep 9.9 02:38:01 12° ENE 02:38:01 12° ENE 02:38:34 10° ENE visible
28 Sep 8.1 04:24:54 36° NNW 04:26:05 39° N 04:32:10 10° ENE visible
29 Sep 8.6 03:34:30 32° NE 03:34:30 32° NE 03:38:31 10° ENE visible
29 Sep 8.6 05:21:23 14° WNW 05:25:52 28° NNW 05:31:23 10° NE visible
30 Sep 9.8 02:44:07 13° ENE 02:44:07 13° ENE 02:44:51 10° ENE visible
30 Sep 8.3 04:31:01 30° NW 04:32:15 32° NNW 04:37:59 10° NE visible
01 Oct 8.6 04:40:42 29° NNE 04:40:42 29° NNE 04:44:30 10° NE visible
01 Oct 9.0 06:27:36 10° WNW 06:31:55 19° NNW 06:36:24 10° NNE visible
02 Oct 9.8 03:50:27 12° ENE 03:50:27 12° ENE 03:50:58 10° ENE visible
02 Oct 8.6 05:37:21 23° NNW 05:38:20 24° NNW 05:43:23 10° NNE visible
